KE9ADS Weather Reports


time (UTC)temp
C
wind
direction
speed
KPH
gust
KPH
rain 1hr
cm
rain 24hr
cm
rain mn
cm
humidity
%
barometer
mb
20260906145747 23 186 0.0 1.6 0.00 0.00 0.00 82 1022.2
20260906144747 22 176 0.0 3.2 0.00 0.00 0.00 88 1022.1
20260906143747 22 120 3.2 3.2 0.00 0.00 0.00 89 1022.1
20260906142744 21 130 0.0 1.6 0.00 0.00 0.00 90 1022.3
20260906141744 21 46 0.0 0.0 0.00 0.00 0.00 90 1022.1
20260906140744 21 157 0.0 0.0 0.00 0.00 0.00 90 1022.1
20260906135742 21 307 0.0 0.0 0.00 0.00 0.00 90 1022.0
20260906134739 21 75 0.0 1.6 0.00 0.00 0.00 91 1022.1
20260906133736 21 90 0.0 3.2 0.00 0.00 0.00 91 1021.8
20260906132732 21 243 0.0 0.0 0.00 0.00 0.00 92 1021.7
20260906131729 21 75 0.0 0.0 0.00 0.00 0.00 94 1021.5
20260906130726 20 137 0.0 0.0 0.00 0.00 0.00 95 1021.9
20260906125725 20 55 0.0 0.0 0.00 0.00 0.00 95 1022.0
20260906124723 20 19 0.0 0.0 0.00 0.00 0.00 96 1021.8
20260906123724 20 137 0.0 0.0 0.00 0.00 0.00 96 1022.0
20260906122718 20 74 0.0 0.0 0.00 0.00 0.00 96 1022.2
20260906121716 20 124 0.0 0.0 0.00 0.00 0.00 96 1021.8
20260906120714 20 73 0.0 0.0 0.00 0.00 0.00 96 1021.8
20260906115712 20 358 0.0 0.0 0.00 0.00 0.00 96 1021.7
20260906114711 20 169 0.0 0.0 0.00 0.00 0.00 96 1021.0
20260906113707 20 194 0.0 4.8 0.00 0.00 0.00 96 1021.0
20260906112706 20 145 0.0 0.0 0.00 0.00 0.00 96 1020.9
20260906111703 20 156 0.0 0.0 0.00 0.00 0.00 96 1020.7
20260906110658 20 170 0.0 0.0 0.00 0.00 0.00 96 1020.6
20260906105653 20 128 0.0 0.0 0.00 0.00 0.00 96 1020.5
20260906104649 20 358 0.0 0.0 0.00 0.00 0.00 96 1020.3
20260906103646 20 125 0.0 0.0 0.00 0.00 0.00 96 1020.2
20260906102643 20 212 0.0 0.0 0.00 0.00 0.00 96 1020.1
20260906101642 20 89 0.0 0.0 0.00 0.00 0.00 95 1019.9
20260906100638 20 125 0.0 0.0 0.00 0.00 0.00 95 1019.8
20260906095633 20 151 0.0 0.0 0.00 0.00 0.00 95 1019.9
20260906094633 20 137 0.0 0.0 0.00 0.00 0.00 94 1020.1
20260906093632 20 140 0.0 0.0 0.00 0.00 0.00 94 1020.1
20260906092626 20 341 0.0 0.0 0.00 0.00 0.00 94 1019.8
20260906091624 20 148 0.0 0.0 0.00 0.00 0.00 94 1019.8
20260906090620 20 98 0.0 0.0 0.00 0.00 0.00 93 1019.8
20260906085619 20 35 0.0 0.0 0.00 0.00 0.00 93 1019.9
20260906084614 21 130 0.0 0.0 0.00 0.00 0.00 93 1020.0
20260906083609 21 168 0.0 0.0 0.00 0.00 0.00 93 1019.9
20260906082604 21 280 0.0 0.0 0.00 0.00 0.00 92 1020.1
20260906081601 21 162 0.0 0.0 0.00 0.00 0.00 92 1019.9
20260906080559 21 195 0.0 0.0 0.00 0.00 0.00 92 1019.9
20260906075554 21 159 0.0 0.0 0.00 0.00 0.00 92 1019.9
20260906074550 21 170 0.0 0.0 0.00 0.00 0.00 92 1019.9
20260906073550 21 220 0.0 0.0 0.00 0.00 0.00 92 1019.8
20260906072546 21 17 0.0 0.0 0.00 0.00 0.00 92 1020.1
20260906071544 22 138 0.0 0.0 0.00 0.00 0.00 92 1020.1
20260906070542 22 326 0.0 3.2 0.00 0.00 0.00 92 1020.2
20260906065536 22 55 0.0 0.0 0.00 0.00 0.00 91 1020.1
20260906064534 22 157 0.0 0.0 0.00 0.00 0.00 91 1020.3
20260906063530 22 300 0.0 0.0 0.00 0.00 0.00 91 1020.2
20260906062527 22 151 0.0 0.0 0.00 0.00 0.00 91 1020.1
20260906061523 22 75 0.0 0.0 0.00 0.00 0.00 91 1020.4
20260906060519 22 271 0.0 0.0 0.00 0.00 0.00 90 1020.3
20260906055517 22 182 0.0 1.6 0.00 0.00 0.00 90 1019.9
20260906054512 22 149 0.0 0.0 0.00 0.00 0.00 90 1020.1
20260906053510 22 121 0.0 3.2 0.00 0.00 0.00 89 1020.1
20260906052506 23 119 0.0 1.6 0.00 0.00 0.00 89 1020.1
20260906051504 23 114 0.0 0.0 0.00 0.00 0.00 89 1020.2
20260906050459 23 145 0.0 0.0 0.00 0.00 0.00 89 1019.9
20260906045458 23 355 0.0 0.0 0.00 0.00 0.00 89 1019.9
20260906044455 23 226 0.0 3.2 0.00 0.00 0.00 89 1019.8
20260906043452 23 60 0.0 4.8 0.00 0.00 0.00 88 1019.6
20260906042447 23 196 0.0 0.0 0.00 0.00 0.00 89 1019.5
20260906041444 23 95 0.0 0.0 0.00 0.00 0.00 89 1019.3
20260906040444 23 94 0.0 0.0 0.00 0.00 0.00 89 1019.2
20260906035441 23 87 0.0 0.0 0.00 0.00 0.00 89 1018.9
20260906034436 23 74 0.0 0.0 0.00 0.00 0.00 88 1018.9
20260906033432 23 50 0.0 0.0 0.00 0.00 0.00 88 1018.8
20260906032430 23 190 0.0 0.0 0.00 0.00 0.00 88 1018.8
20260906031425 23 171 0.0 0.0 0.00 0.00 0.00 88 1018.8
20260906030421 23 164 0.0 0.0 0.00 0.00 0.00 88 1018.7
20260906025416 23 122 0.0 0.0 0.00 0.00 0.00 88 1018.6
20260906024414 23 127 0.0 0.0 0.00 0.00 0.00 88 1018.6
20260906023412 23 130 0.0 0.0 0.00 0.00 0.00 88 1018.6
20260906022413 23 144 0.0 0.0 0.00 0.00 0.00 87 1018.5
20260906021408 23 139 0.0 0.0 0.00 0.00 0.00 86 1018.3
20260906020409 23 110 0.0 0.0 0.00 0.00 0.00 86 1018.3
20260906015408 24 144 0.0 0.0 0.00 0.00 0.00 86 1018.2
20260906014408 24 173 0.0 0.0 0.00 0.00 0.00 85 1017.9
20260906013406 24 97 0.0 0.0 0.00 0.00 0.00 85 1017.9
20260906012402 25 346 0.0 0.0 0.00 0.00 0.00 85 1017.8
20260906011402 25 175 0.0 3.2 0.00 0.00 0.00 84 1018.0
20260906010359 25 312 0.0 1.6 0.00 0.00 0.00 83 1017.9
20260906005359 25 120 0.0 0.0 0.00 0.00 0.00 83 1017.9
20260906004359 26 1 0.0 0.0 0.00 0.00 0.00 83 1017.9
20260906003355 26 357 0.0 0.0 0.00 0.00 0.00 82 1017.8
20260906002355 26 179 0.0 1.6 0.00 0.00 0.00 81 1017.9
20260906001353 26 343 0.0 1.6 0.00 0.00 0.00 81 1017.7
20260906000355 27 305 0.0 0.0 0.00 0.00 0.00 80 1017.6
20260905235349 27 335 1.6 3.2 0.00 0.00 0.00 80 1017.4
20260905234345 27 168 0.0 1.6 0.00 0.00 0.00 80 1017.6
20260905233341 28 121 1.6 6.4 0.00 0.00 0.00 78 1017.5
20260905232337 28 177 0.0 3.2 0.00 0.00 0.00 77 1017.4
20260905231332 29 336 1.6 3.2 0.00 0.00 0.00 76 1017.3
20260905230332 30 356 1.6 9.7 0.00 0.00 0.00 74 1017.4
20260905225327 30 105 0.0 3.2 0.00 0.00 0.00 73 1017.3
20260905224323 30 101 0.0 4.8 0.00 0.00 0.00 72 1017.2
20260905223322 30 143 0.0 0.0 0.00 0.00 0.00 73 1017.2
20260905222321 30 288 1.6 4.8 0.00 0.00 0.00 73 1017.0
20260905221320 31 322 3.2 4.8 0.00 0.00 0.00 72 1016.9
20260905220317 31 262 0.0 3.2 0.00 0.00 0.00 71 1016.9
20260905215312 31 122 0.0 4.8 0.00 0.00 0.00 71 1016.9
20260905214309 31 316 1.6 6.4 0.00 0.00 0.00 70 1016.7
20260905213306 31 348 1.6 3.2 0.00 0.00 0.00 71 1016.6
20260905212306 32 195 1.6 6.4 0.00 0.00 0.00 69 1016.7
20260905211301 32 164 0.0 3.2 0.00 0.00 0.00 66 1016.5
20260905210258 32 168 0.0 3.2 0.00 0.00 0.00 67 1016.4
20260905205257 32 254 0.0 1.6 0.00 0.00 0.00 64 1016.6
20260905204253 32 22 0.0 6.4 0.00 0.00 0.00 66 1016.9
20260905203253 32 167 0.0 6.4 0.00 0.00 0.00 66 1016.9
20260905202249 33 149 0.0 0.0 0.00 0.00 0.00 64 1017.0
20260905201246 32 168 0.0 0.0 0.00 0.00 0.00 67 1017.0
20260905200243 33 72 1.6 6.4 0.00 0.00 0.00 65 1016.9
20260905195241 32 156 0.0 3.2 0.00 0.00 0.00 65 1016.9
20260905194236 33 207 0.0 0.0 0.00 0.00 0.00 62 1016.9
20260905193231 32 184 0.0 0.0 0.00 0.00 0.00 68 1017.2
20260905192229 33 315 0.0 1.6 0.00 0.00 0.00 65 1017.2
20260905191226 32 108 0.0 0.0 0.00 0.00 0.00 67 1017.3
20260905190224 33 127 0.0 0.0 0.00 0.00 0.00 66 1017.6
20260905185224 32 160 0.0 1.6 0.00 0.00 0.00 68 1017.4
20260905184224 33 323 0.0 3.2 0.00 0.00 0.00 64 1017.4
20260905183219 33 305 0.0 1.6 0.00 0.00 0.00 65 1017.4
20260905182218 32 121 0.0 0.0 0.00 0.00 0.00 65 1017.5
20260905181218 33 328 0.0 3.2 0.00 0.00 0.00 65 1017.5
20260905180214 33 309 0.0 0.0 0.00 0.00 0.00 64 1017.6
20260905175215 33 217 0.0 0.0 0.00 0.00 0.00 64 1017.8
20260905174212 33 156 0.0 3.2 0.00 0.00 0.00 64 1017.7
20260905173209 33 207 0.0 0.0 0.00 0.00 0.00 64 1017.7
20260905172209 33 130 0.0 1.6 0.00 0.00 0.00 64 1017.7
20260905171206 33 105 0.0 0.0 0.00 0.00 0.00 65 1018.0
20260905170203 33 328 0.0 1.6 0.00 0.00 0.00 66 1018.0
20260905165158 32 166 0.0 1.6 0.00 0.00 0.00 68 1018.1
20260905164159 32 305 0.0 3.2 0.00 0.00 0.00 69 1018.1
20260905163157 31 167 0.0 3.2 0.00 0.00 0.00 70 1018.1
20260905162152 32 67 0.0 3.2 0.00 0.00 0.00 69 1018.0
20260905161151 32 104 1.6 3.2 0.00 0.00 0.00 68 1017.9
20260905160149 31 338 0.0 4.8 0.00 0.00 0.00 69 1017.9
20260905155149 32 57 0.0 3.2 0.00 0.00 0.00 68 1018.1
20260905154145 31 147 0.0 1.6 0.00 0.00 0.00 69 1017.9
20260905153142 32 144 0.0 0.0 0.00 0.00 0.00 69 1018.0
20260905152137 31 319 0.0 1.6 0.00 0.00 0.00 70 1017.9
20260905151134 31 91 0.0 1.6 0.00 0.00 0.00 71 1017.9